| time (UTC) | temp C | wind direction | speed KPH | gust KPH | rain 1hr cm | rain 24hr cm | rain mn cm | humidity % | barometer mb |
| 20260509213649 | 22 | 251 | 11.3 | 22.5 | 0.00 | 2.44 | 1.17 | 57 | 1006.8 |
| 20260509212749 | 22 | 260 | 12.9 | 20.9 | 0.00 | 2.44 | 1.17 | 57 | 1006.8 |
| 20260509211849 | 22 | 252 | 11.3 | 27.4 | 0.00 | 2.44 | 1.17 | 58 | 1006.9 |
| 20260509210949 | 22 | 251 | 11.3 | 22.5 | 0.00 | 2.44 | 1.17 | 56 | 1007.0 |
| 20260509210049 | 22 | 266 | 8.0 | 14.5 | 0.00 | 2.44 | 1.17 | 61 | 1006.9 |
| 20260509205148 | 22 | 273 | 8.0 | 12.9 | 0.00 | 2.44 | 1.17 | 59 | 1007.0 |
| 20260509204724 | 22 | 249 | 11.3 | 14.5 | 0.00 | 2.44 | 1.17 | 57 | 1007.0 |
| 20260509203825 | 22 | 260 | 4.8 | 11.3 | 0.00 | 2.44 | 1.17 | 63 | 1007.1 |
| 20260509202924 | 22 | 238 | 14.5 | 22.5 | 0.00 | 2.44 | 1.17 | 62 | 1007.3 |
| 20260509202024 | 22 | 239 | 12.9 | 19.3 | 0.00 | 2.44 | 1.17 | 62 | 1007.4 |
| 20260509201126 | 21 | 264 | 8.0 | 11.3 | 0.00 | 2.44 | 1.17 | 63 | 1007.5 |
| 20260509200225 | 21 | 238 | 4.8 | 16.1 | 0.00 | 2.44 | 1.17 | 64 | 1007.6 |
| 20260509195325 | 21 | 266 | 8.0 | 14.5 | 0.00 | 2.44 | 1.17 | 65 | 1007.7 |
| 20260509194426 | 21 | 223 | 9.7 | 19.3 | 0.00 | 2.44 | 1.17 | 66 | 1007.8 |
| 20260509193524 | 21 | 266 | 4.8 | 11.3 | 0.00 | 2.44 | 1.17 | 67 | 1007.7 |
| 20260509192624 | 21 | 263 | 9.7 | 12.9 | 0.00 | 2.44 | 1.17 | 66 | 1007.8 |
| 20260509191726 | 21 | 228 | 11.3 | 32.2 | 0.00 | 2.44 | 1.17 | 68 | 1007.8 |
| 20260509190825 | 20 | 253 | 12.9 | 12.9 | 0.00 | 2.44 | 1.17 | 68 | 1007.8 |
| 20260509185925 | 20 | 206 | 12.9 | 19.3 | 0.00 | 2.44 | 1.17 | 67 | 1007.9 |
| 20260509185024 | 20 | 239 | 11.3 | 19.3 | 0.00 | 2.44 | 1.17 | 68 | 1008.0 |
| 20260509184127 | 20 | 264 | 8.0 | 12.9 | 0.00 | 2.44 | 1.17 | 68 | 1008.0 |
| 20260509183224 | 20 | 244 | 9.7 | 20.9 | 0.00 | 2.44 | 1.17 | 70 | 1007.9 |
| 20260509182325 | 20 | 259 | 11.3 | 20.9 | 0.00 | 2.44 | 1.17 | 70 | 1008.0 |
| 20260509181424 | 20 | 225 | 12.9 | 20.9 | 0.00 | 2.44 | 1.17 | 69 | 1008.0 |
| 20260509180525 | 20 | 239 | 12.9 | 19.3 | 0.00 | 2.44 | 1.17 | 69 | 1008.0 |
| 20260509175749 | 19 | 188 | 12.9 | 19.3 | 0.00 | 2.44 | 1.17 | 69 | 1008.0 |
| 20260509175624 | 19 | 188 | 12.9 | 19.3 | 0.00 | 2.44 | 1.17 | 69 | 1008.0 |
| 20260509174724 | 19 | 243 | 12.9 | 19.3 | 0.00 | 2.44 | 1.17 | 69 | 1008.0 |
| 20260509173826 | 19 | 247 | 8.0 | 19.3 | 0.00 | 2.44 | 1.17 | 71 | 1008.3 |
| 20260509172924 | 19 | 205 | 11.3 | 25.7 | 0.00 | 2.44 | 1.17 | 70 | 1008.4 |
| 20260509172024 | 19 | 205 | 11.3 | 19.3 | 0.00 | 2.44 | 1.17 | 71 | 1008.5 |
| 20260509171125 | 18 | 257 | 11.3 | 19.3 | 0.00 | 2.44 | 1.17 | 73 | 1008.4 |
| 20260509170225 | 18 | 245 | 9.7 | 20.9 | 0.00 | 2.44 | 1.17 | 72 | 1008.4 |
| 20260509164501 | 18 | 234 | 8.0 | 16.1 | 0.00 | 2.44 | 1.17 | 75 | 1008.4 |
| 20260509164426 | 18 | 234 | 8.0 | 16.1 | 0.00 | 2.44 | 1.17 | 75 | 1008.4 |
| 20260509163526 | 18 | 253 | 11.3 | 19.3 | 0.00 | 2.44 | 1.17 | 71 | 1008.5 |
| 20260509162624 | 18 | 245 | 12.9 | 16.1 | 0.00 | 2.44 | 1.17 | 72 | 1008.5 |
| 20260509161724 | 18 | 207 | 11.3 | 19.3 | 0.00 | 2.44 | 1.17 | 70 | 1008.3 |
| 20260509160825 | 18 | 205 | 9.7 | 16.1 | 0.00 | 2.44 | 1.17 | 72 | 1008.3 |
| 20260509155927 | 17 | 252 | 8.0 | 14.5 | 0.00 | 2.44 | 1.17 | 72 | 1008.3 |
| 20260509155025 | 17 | 217 | 11.3 | 16.1 | 0.00 | 2.44 | 1.17 | 73 | 1008.3 |
| 20260509154126 | 17 | 271 | 9.7 | 4.8 | 0.00 | 2.44 | 1.17 | 75 | 1008.4 |
| 20260509153225 | 17 | 250 | 9.7 | 19.3 | 0.00 | 2.44 | 1.17 | 75 | 1008.4 |
| 20260509152324 | 17 | 217 | 4.8 | 11.3 | 0.00 | 2.44 | 1.17 | 77 | 1008.4 |
| 20260509151425 | 17 | 250 | 4.8 | 12.9 | 0.00 | 2.44 | 1.17 | 78 | 1008.5 |
| 20260509150525 | 16 | 223 | 8.0 | 11.3 | 0.00 | 2.44 | 1.17 | 78 | 1008.4 |
| 20260509145624 | 16 | 233 | 8.0 | 11.3 | 0.00 | 2.44 | 1.17 | 78 | 1008.4 |
| 20260509144726 | 16 | 277 | 4.8 | 8.0 | 0.00 | 2.44 | 1.17 | 81 | 1008.2 |
| 20260509143856 | 16 | 215 | 8.0 | 8.0 | 0.00 | 2.44 | 1.17 | 82 | 1008.3 |
| 20260509143825 | 16 | 215 | 8.0 | 8.0 | 0.00 | 2.44 | 1.17 | 82 | 1008.3 |
| 20260509142925 | 15 | 238 | 8.0 | 11.3 | 0.00 | 2.44 | 1.17 | 82 | 1008.2 |
| 20260509141125 | 14 | 186 | 8.0 | 9.7 | 0.00 | 2.44 | 1.17 | 84 | 1008.1 |
| 20260509140226 | 14 | 234 | 4.8 | 12.9 | 0.00 | 2.44 | 1.17 | 86 | 1008.0 |
| 20260509135324 | 14 | 245 | 1.6 | 4.8 | 0.00 | 2.44 | 1.17 | 87 | 1008.0 |
| 20260509134456 | 13 | 218 | 3.2 | 9.7 | 0.00 | 2.44 | 1.17 | 87 | 1008.0 |
| 20260509134425 | 13 | 218 | 3.2 | 9.7 | 0.00 | 2.44 | 1.17 | 87 | 1008.0 |
| 20260509133555 | 13 | 180 | 8.0 | 9.7 | 0.00 | 2.44 | 1.17 | 88 | 1008.0 |
| 20260509133524 | 13 | 180 | 8.0 | 9.7 | 0.00 | 2.44 | 1.17 | 88 | 1008.0 |
| 20260509132624 | 13 | 218 | 1.6 | 4.8 | 0.00 | 2.44 | 1.17 | 91 | 1008.1 |
| 20260509131757 | 12 | 206 | 3.2 | 8.0 | 0.00 | 2.44 | 1.17 | 90 | 1008.2 |
| 20260509131724 | 12 | 206 | 3.2 | 8.0 | 0.00 | 2.44 | 1.17 | 90 | 1008.2 |
| 20260509130824 | 12 | 234 | 3.2 | 4.8 | 0.00 | 2.44 | 1.17 | 91 | 1008.3 |
| 20260509125925 | 12 | 230 | 4.8 | 8.0 | 0.00 | 2.44 | 1.17 | 91 | 1008.2 |
| 20260509124125 | 12 | 258 | 4.8 | 11.3 | 0.00 | 2.44 | 1.17 | 91 | 1008.4 |
| 20260509123225 | 12 | 234 | 8.0 | 9.7 | 0.00 | 2.44 | 1.17 | 91 | 1008.3 |
| 20260509122325 | 12 | 229 | 4.8 | 9.7 | 0.00 | 2.44 | 1.17 | 91 | 1008.4 |
| 20260509121425 | 11 | 237 | 4.8 | 11.3 | 0.00 | 2.44 | 1.17 | 92 | 1008.3 |
| 20260509115625 | 11 | 258 | 1.6 | 3.2 | 0.00 | 2.44 | 1.17 | 92 | 1008.3 |
| 20260509114756 | 11 | 233 | 0.0 | 3.2 | 0.00 | 2.44 | 1.17 | 92 | 1008.1 |
| 20260509114725 | 11 | 233 | 0.0 | 3.2 | 0.00 | 2.44 | 1.17 | 92 | 1008.1 |
| 20260509113855 | 11 | 155 | 0.0 | 1.6 | 0.00 | 2.44 | 1.17 | 92 | 1007.9 |
| 20260509113824 | 11 | 155 | 0.0 | 1.6 | 0.00 | 2.44 | 1.17 | 92 | 1007.9 |
| 20260509112925 | 11 | 290 | 0.0 | 0.0 | 0.00 | 2.44 | 1.17 | 91 | 1008.1 |
| 20260509112119 | 11 | 278 | 1.6 | 1.6 | 0.00 | 2.44 | 1.17 | 91 | 1008.2 |
| 20260509112026 | 11 | 278 | 1.6 | 1.6 | 0.00 | 2.44 | 1.17 | 91 | 1008.2 |
| 20260509111157 | 11 | 233 | 0.0 | 1.6 | 0.00 | 2.44 | 1.17 | 91 | 1008.1 |
| 20260509111124 | 11 | 233 | 0.0 | 1.6 | 0.00 | 2.44 | 1.17 | 91 | 1008.1 |
| 20260509110225 | 11 | 200 | 1.6 | 3.2 | 0.00 | 2.44 | 1.17 | 91 | 1008.0 |
| 20260509105324 | 11 | 231 | 0.0 | 0.0 | 0.03 | 2.44 | 1.17 | 91 | 1007.9 |
| 20260509104456 | 11 | 266 | 0.0 | 1.6 | 0.03 | 2.44 | 1.17 | 91 | 1008.1 |
| 20260509104424 | 11 | 266 | 0.0 | 1.6 | 0.03 | 2.44 | 1.17 | 91 | 1008.1 |
| 20260509103602 | 11 | 286 | 1.6 | 1.6 | 0.05 | 2.44 | 1.17 | 91 | 1008.1 |
| 20260509103527 | 11 | 286 | 1.6 | 1.6 | 0.05 | 2.44 | 1.17 | 91 | 1008.1 |
| 20260509102627 | 11 | 246 | 1.6 | 3.2 | 0.05 | 2.44 | 1.17 | 91 | 1007.9 |
| 20260509101724 | 11 | 292 | 4.8 | 9.7 | 0.05 | 2.44 | 1.17 | 91 | 1008.0 |
| 20260509100824 | 11 | 304 | 4.8 | 8.0 | 0.05 | 2.44 | 1.17 | 90 | 1007.9 |
| 20260509095925 | 11 | 143 | 16.1 | 22.5 | 0.05 | 2.44 | 1.17 | 91 | 1007.0 |
| 20260509095024 | 11 | 231 | 3.2 | 8.0 | 0.03 | 2.41 | 1.14 | 91 | 1008.0 |
| 20260509094124 | 11 | 205 | 3.2 | 8.0 | 0.00 | 2.39 | 1.12 | 91 | 1008.2 |
| 20260509093225 | 11 | 194 | 4.8 | 9.7 | 0.00 | 2.39 | 1.12 | 91 | 1008.1 |
| 20260509092324 | 11 | 223 | 3.2 | 8.0 | 0.00 | 2.39 | 1.12 | 90 | 1008.1 |
| 20260509091424 | 11 | 235 | 3.2 | 4.8 | 0.03 | 2.39 | 1.12 | 90 | 1008.1 |
| 20260509090524 | 11 | 193 | 3.2 | 4.8 | 0.03 | 2.39 | 1.12 | 90 | 1007.9 |
| 20260509084723 | 11 | 219 | 1.6 | 4.8 | 0.03 | 2.39 | 1.12 | 90 | 1008.2 |
| 20260509083824 | 11 | 224 | 1.6 | 4.8 | 0.03 | 2.39 | 1.12 | 90 | 1008.1 |
| 20260509082924 | 11 | 236 | 3.2 | 9.7 | 0.05 | 2.39 | 1.12 | 90 | 1008.1 |
| 20260509082055 | 11 | 177 | 3.2 | 9.7 | 0.08 | 2.36 | 1.09 | 90 | 1008.2 |
| 20260509082023 | 11 | 177 | 3.2 | 9.7 | 0.08 | 2.36 | 1.09 | 90 | 1008.2 |
| 20260509081125 | 11 | 220 | 8.0 | 9.7 | 0.08 | 2.36 | 1.09 | 90 | 1008.2 |
| 20260509080224 | 11 | 166 | 4.8 | 8.0 | 0.10 | 2.36 | 1.09 | 90 | 1008.1 |
| 20260509075323 | 12 | 245 | 4.8 | 8.0 | 0.13 | 2.36 | 1.09 | 90 | 1008.3 |
| 20260509074424 | 12 | 224 | 4.8 | 9.7 | 0.13 | 2.36 | 1.09 | 90 | 1008.4 |
| 20260509073524 | 12 | 248 | 3.2 | 9.7 | 0.10 | 2.34 | 1.07 | 90 | 1008.8 |
| 20260509072625 | 12 | 267 | 1.6 | 4.8 | 0.13 | 2.34 | 1.07 | 90 | 1008.8 |
| 20260509071726 | 12 | 261 | 4.8 | 8.0 | 0.13 | 2.29 | 1.02 | 90 | 1008.9 |
| 20260509070824 | 12 | 270 | 1.6 | 4.8 | 0.18 | 2.29 | 1.02 | 90 | 1009.0 |
| 20260509065925 | 12 | 252 | 8.0 | 20.9 | 0.23 | 2.26 | 0.99 | 91 | 1009.0 |
| 20260509065025 | 12 | 265 | 8.0 | 9.7 | 0.23 | 2.24 | 0.97 | 91 | 1008.9 |
| 20260509064124 | 12 | 249 | 8.0 | 16.1 | 0.28 | 2.24 | 0.97 | 91 | 1009.2 |
| 20260509063224 | 12 | 250 | 4.8 | 11.3 | 0.33 | 2.21 | 0.94 | 91 | 1009.3 |
| 20260509062748 | 12 | 207 | 8.0 | 12.9 | 0.41 | 2.18 | 0.91 | 91 | 1009.4 |
| 20260509062325 | 12 | 207 | 8.0 | 12.9 | 0.41 | 2.18 | 0.91 | 91 | 1009.4 |
| 20260509061425 | 12 | 238 | 3.2 | 4.8 | 0.46 | 2.16 | 0.89 | 90 | 1009.4 |
| 20260509060524 | 12 | 195 | 4.8 | 8.0 | 0.48 | 2.11 | 0.84 | 90 | 1009.6 |
| 20260509055624 | 12 | 208 | 3.2 | 3.2 | 0.43 | 2.03 | 0.76 | 90 | 1009.5 |
| 20260509054726 | 12 | 243 | 4.8 | 4.8 | 0.43 | 1.98 | 0.71 | 90 | 1009.7 |
| 20260509053824 | 12 | 184 | 4.8 | 9.7 | 0.48 | 1.96 | 0.69 | 90 | 1009.7 |
| 20260509052925 | 12 | 216 | 4.8 | 19.3 | 0.41 | 1.83 | 0.56 | 90 | 1009.8 |
| 20260509052023 | 12 | 205 | 3.2 | 4.8 | 0.41 | 1.78 | 0.51 | 90 | 1009.7 |
| 20260509051126 | 12 | 129 | 3.2 | 8.0 | 0.33 | 1.68 | 0.41 | 90 | 1009.7 |
| 20260509050225 | 12 | 169 | 3.2 | 8.0 | 0.33 | 1.63 | 0.36 | 89 | 1009.8 |
| 20260509045323 | 12 | 194 | 4.8 | 8.0 | 0.00 | 1.60 | 0.33 | 89 | 1009.7 |
| 20260509044423 | 12 | 205 | 4.8 | 11.3 | 0.00 | 1.52 | 0.25 | 89 | 1009.9 |
| 20260509043524 | 12 | 198 | 4.8 | 11.3 | 0.00 | 1.47 | 0.20 | 89 | 1010.1 |
| 20260509042624 | 12 | 208 | 3.2 | 8.0 | 0.00 | 1.42 | 0.15 | 90 | 1010.2 |
| 20260509041725 | 12 | 246 | 3.2 | 8.0 | 0.00 | 1.37 | 0.10 | 90 | 1010.3 |
| 20260509035924 | 12 | 263 | 3.2 | 4.8 | 0.00 | 1.27 | 0.00 | 90 | 1010.5 |
| 20260509035024 | 12 | 255 | 4.8 | 9.7 | 0.41 | 1.22 | 1.22 | 90 | 1010.4 |
| 20260509034125 | 12 | 245 | 3.2 | 4.8 | 0.41 | 1.17 | 1.17 | 89 | 1010.3 |
| 20260509033223 | 12 | 271 | 3.2 | 12.9 | 0.33 | 1.07 | 1.07 | 89 | 1010.7 |
| 20260509032324 | 12 | 218 | 11.3 | 16.1 | 0.33 | 1.02 | 1.02 | 89 | 1010.4 |
| 20260509031425 | 12 | 222 | 4.8 | 11.3 | 0.36 | 0.94 | 0.94 | 89 | 1010.5 |
| 20260509030525 | 12 | 257 | 4.8 | 11.3 | 0.36 | 0.89 | 0.89 | 90 | 1010.8 |
| 20260509025624 | 12 | 246 | 8.0 | 12.9 | 0.38 | 0.84 | 0.84 | 90 | 1010.7 |
| 20260509024724 | 12 | 231 | 3.2 | 8.0 | 0.36 | 0.79 | 0.79 | 90 | 1010.7 |
| 20260509022924 | 12 | 217 | 8.0 | 12.9 | 0.36 | 0.71 | 0.71 | 90 | 1010.9 |
| 20260509021125 | 12 | 210 | 8.0 | 12.9 | 0.25 | 0.56 | 0.56 | 90 | 1010.8 |
| 20260509020224 | 12 | 208 | 3.2 | 4.8 | 0.23 | 0.51 | 0.51 | 90 | 1010.7 |
| 20260509015325 | 12 | 194 | 3.2 | 3.2 | 0.20 | 0.46 | 0.46 | 90 | 1010.6 |
| 20260509014425 | 12 | 281 | 1.6 | 1.6 | 0.20 | 0.41 | 0.41 | 89 | 1010.7 |
| 20260509013525 | 12 | 230 | 3.2 | 8.0 | 0.20 | 0.38 | 0.38 | 89 | 1010.4 |
| 20260509012625 | 12 | 202 | 4.8 | 8.0 | 0.18 | 0.36 | 0.36 | 89 | 1010.3 |
| 20260509011723 | 12 | 222 | 1.6 | 3.2 | 0.18 | 0.33 | 0.33 | 89 | 1010.5 |
| 20260509005924 | 12 | 286 | 1.6 | 1.6 | 0.15 | 0.28 | 0.28 | 89 | 1010.4 |
| 20260509005024 | 12 | 226 | 0.0 | 3.2 | 0.10 | 0.23 | 0.23 | 88 | 1010.2 |
| 20260509004125 | 12 | 290 | 1.6 | 3.2 | 0.10 | 0.20 | 0.20 | 88 | 1010.2 |
| 20260509003259 | 12 | 235 | 1.6 | 1.6 | 0.10 | 0.18 | 0.18 | 88 | 1010.0 |
| 20260509003226 | 12 | 235 | 1.6 | 1.6 | 0.10 | 0.18 | 0.18 | 88 | 1010.0 |
| 20260509002324 | 12 | 281 | 1.6 | 3.2 | 0.13 | 0.18 | 0.18 | 87 | 1010.1 |
| 20260509001424 | 12 | 282 | 1.6 | 1.6 | 0.13 | 0.15 | 0.15 | 87 | 1010.2 |
| 20260509000523 | 12 | 291 | 3.2 | 4.8 | 0.13 | 0.13 | 0.13 | 86 | 1010.3 |
| 20260508235624 | 12 | 285 | 1.6 | 3.2 | 0.13 | 0.13 | 0.13 | 86 | 1010.4 |
| 20260508234725 | 12 | 293 | 3.2 | 3.2 | 0.10 | 0.10 | 0.10 | 85 | 1010.2 |
| 20260508233824 | 12 | 289 | 3.2 | 4.8 | 0.10 | 0.10 | 0.10 | 84 | 1010.2 |
| 20260508232924 | 13 | 322 | 0.0 | 1.6 | 0.08 | 0.08 | 0.08 | 83 | 1010.3 |
| 20260508232025 | 13 | 307 | 3.2 | 4.8 | 0.03 | 0.03 | 0.03 | 81 | 1010.3 |
| 20260508231125 | 13 | 307 | 4.8 | 8.0 | 0.03 | 0.03 | 0.03 | 80 | 1010.5 |
| 20260508230223 | 13 | 303 | 9.7 | 9.7 | 0.00 | 0.00 | 0.00 | 78 | 1010.3 |
| 20260508225324 | 13 | 298 | 12.9 | 16.1 | 0.00 | 0.00 | 0.00 | 75 | 1010.3 |
| 20260508224425 | 15 | 286 | 12.9 | 19.3 | 0.00 | 0.00 | 0.00 | 73 | 1010.3 |
| 20260508223525 | 15 | 292 | 16.1 | 19.3 | 0.00 | 0.00 | 0.00 | 69 | 1010.2 |
| 20260508222626 | 16 | 284 | 12.9 | 19.3 | 0.00 | 0.00 | 0.00 | 67 | 1010.1 |
| 20260508221725 | 16 | 281 | 1.6 | 4.8 | 0.00 | 0.00 | 0.00 | 69 | 1009.9 |
| 20260508220825 | 16 | 224 | 3.2 | 3.2 | 0.00 | 0.00 | 0.00 | 63 | 1009.6 |
| 20260508215924 | 16 | 137 | 1.6 | 3.2 | 0.00 | 0.00 | 0.00 | 62 | 1009.3 |
| 20260508215024 | 17 | 173 | 0.0 | 3.2 | 0.00 | 0.00 | 0.00 | 61 | 1009.3 |
| 20260508214125 | 17 | 223 | 1.6 | 3.2 | 0.00 | 0.00 | 0.00 | 60 | 1009.4 |